Location: *
(46.1866°S, 178.5290°W)
Time: 07:45:12
(UTC+00:00)

SJ 16-02 - Pass Details

Date: 19 May 2021
Orbit: 606 x 616 km, 75.0° (Epoch: 14 June)

Event Time Altitude Azimuth Distance (km) Brightness Sun altitude
Rises 06:36:07 0° 209° (SSW) 2,914 5.1 -21.9°
Reaches altitude 10° 06:38:31 10° 217° (SW) 2,002 4.3 -22.3°
Maximum altitude 06:42:33 34° 282° (WNW) 1,033 3.1 -23.0°
Drops below altitude 10° 06:46:33 10° 346° (NNW) 1,982 4.1 -23.7°
Sets 06:48:55 0° 355° (N) 2,880 4.9 -24.1°
